"read_dt","SO2 (ppb)","flags","PMT voltage (V)","lamp voltage (V)","lamp intensity (Hz)","internal temp (C)","react chamber temp (C)","sample flow (l/min)","pres (mmHg)","SO2 bkg (ppb)","SO2 coefficient"
2014-08-23 00:00:00,1643E-3,5C000000,-0724,0827,12071,026.7,045.5,0.480,737.3,01.18,0.508
2014-08-23 00:01:00,1781E-3,5C000000,-0724,0828,12190,026.7,045.5,0.479,737.3,01.18,0.508
2014-08-23 00:02:00,1773E-3,5C000000,-0724,0828,12034,026.8,045.4,0.480,737.2,01.18,0.508
2014-08-23 00:03:00,1752E-3,5C000000,-0724,0829,12219,026.8,045.5,0.480,737.3,01.18,0.508
2014-08-23 00:04:00,1947E-3,5C000000,-0724,0828,12023,026.8,045.5,0.480,737.2,01.18,0.508
2014-08-23 00:05:00,1789E-3,5C000000,-0724,0829,12096,026.8,045.5,0.479,737.2,01.18,0.508
2014-08-23 00:06:00,1886E-3,5C000000,-0724,0829,12254,026.8,045.5,0.479,737.2,01.18,0.508
2014-08-23 00:07:00,2049E-3,5C000000,-0724,0828,12304,026.8,045.5,0.480,737.2,01.18,0.508
2014-08-23 00:08:00,1882E-3,5C000000,-0724,0829,12329,026.8,045.5,0.480,737.2,01.18,0.508
2014-08-23 00:09:00,1827E-3,5C000000,-0724,0829,12311,026.8,045.5,0.479,737.2,01.18,0.508
2014-08-23 00:10:00,1793E-3,5C000000,-0724,0828,12022,026.8,045.5,0.479,737.2,01.18,0.508
2014-08-23 00:11:00,1709E-3,5C000000,-0724,0828,12198,026.8,045.4,0.480,737.2,01.18,0.508
2014-08-23 00:12:00,1803E-3,5C000000,-0724,0828,12038,026.8,045.4,0.480,737.2,01.18,0.508
2014-08-23 00:13:00,1687E-3,5C000000,-0724,0828,12248,026.8,045.5,0.480,737.2,01.18,0.508
2014-08-23 00:14:00,1796E-3,5C000000,-0724,0828,12422,026.8,045.5,0.479,737.2,01.18,0.508
2014-08-23 00:15:00,1761E-3,5C000000,-0724,0827,12074,026.8,045.5,0.479,737.2,01.18,0.508
2014-08-23 00:16:00,1863E-3,5C000000,-0724,0828,12204,026.9,045.4,0.480,737.2,01.18,0.508
2014-08-23 00:17:00,1702E-3,5C000000,-0724,0828,11967,026.9,045.4,0.480,737.2,01.18,0.508
2014-08-23 00:18:00,1944E-3,5C000000,-0724,0828,12329,026.9,045.5,0.479,737.2,01.18,0.508
2014-08-23 00:19:00,1777E-3,5C000000,-0724,0829,12215,026.9,045.5,0.479,737.2,01.18,0.508
2014-08-23 00:20:00,1851E-3,5C000000,-0724,0828,12145,026.9,045.5,0.480,737.2,01.18,0.508
2014-08-23 00:21:00,1870E-3,5C000000,-0724,0828,12276,026.9,045.5,0.480,737.2,01.18,0.508
2014-08-23 00:22:00,1926E-3,5C000000,-0724,0828,12185,026.9,045.4,0.479,737.2,01.18,0.508
2014-08-23 00:23:00,1808E-3,5C000000,-0724,0828,12173,026.9,045.5,0.479,737.2,01.18,0.508
2014-08-23 00:24:00,1842E-3,5C000000,-0724,0828,12226,026.9,045.4,0.480,737.2,01.18,0.508
2014-08-23 00:25:00,1847E-3,5C000000,-0724,0829,12278,026.9,045.4,0.480,737.2,01.18,0.508
2014-08-23 00:26:00,1763E-3,5C000000,-0724,0829,12327,026.9,045.5,0.479,737.1,01.18,0.508
2014-08-23 00:27:00,1699E-3,5C000000,-0724,0828,12291,027.0,045.5,0.479,737.1,01.18,0.508
2014-08-23 00:28:00,1701E-3,5C000000,-0724,0830,12333,026.9,045.5,0.479,737.1,01.18,0.508
2014-08-23 00:29:00,1842E-3,5C000000,-0724,0828,12194,026.9,045.5,0.480,737.0,01.18,0.508
2014-08-23 00:30:00,1729E-3,5C000000,-0724,0828,12117,026.9,045.4,0.479,737.0,01.18,0.508
2014-08-23 00:31:00,1715E-3,5C000000,-0724,0829,12258,026.9,045.4,0.479,737.0,01.18,0.508
2014-08-23 00:32:00,1870E-3,5C000000,-0724,0828,11995,027.0,045.4,0.479,737.0,01.18,0.508
2014-08-23 00:33:00,1739E-3,5C000000,-0724,0828,12019,027.0,045.4,0.480,737.0,01.18,0.508
2014-08-23 00:34:00,1788E-3,5C000000,-0724,0828,12258,026.9,045.4,0.479,737.0,01.18,0.508
2014-08-23 00:35:00,1795E-3,5C000000,-0724,0828,12184,027.0,045.5,0.479,737.0,01.18,0.508
2014-08-23 00:36:00,1787E-3,5C000000,-0724,0829,12019,027.0,045.5,0.479,736.9,01.18,0.508
2014-08-23 00:37:00,1814E-3,5C000000,-0724,0828,12107,027.0,045.5,0.480,736.9,01.18,0.508
2014-08-23 00:38:00,1794E-3,5C000000,-0724,0828,12353,027.0,045.5,0.479,736.9,01.18,0.508
2014-08-23 00:39:00,1805E-3,5C000000,-0724,0829,12187,027.0,045.5,0.479,736.9,01.18,0.508
2014-08-23 00:40:00,1763E-3,5C000000,-0724,0828,12175,027.0,045.5,0.479,736.9,01.18,0.508
2014-08-23 00:41:00,1729E-3,5C000000,-0724,0828,12299,027.0,045.5,0.479,736.8,01.18,0.508
2014-08-23 00:42:00,1827E-3,5C000000,-0724,0828,12179,027.0,045.4,0.479,736.8,01.18,0.508
2014-08-23 00:43:00,1749E-3,5C000000,-0724,0828,12136,027.0,045.5,0.479,736.8,01.18,0.508
2014-08-23 00:44:00,1684E-3,5C000000,-0724,0829,12229,027.0,045.5,0.479,736.8,01.18,0.508
2014-08-23 00:45:00,1800E-3,5C000000,-0724,0828,12111,027.0,045.5,0.480,736.9,01.18,0.508
2014-08-23 00:46:00,1865E-3,5C000000,-0724,0829,12328,027.0,045.5,0.479,736.8,01.18,0.508
2014-08-23 00:47:00,1686E-3,5C000000,-0724,0829,12107,027.0,045.5,0.479,736.9,01.18,0.508
2014-08-23 00:48:00,1735E-3,5C000000,-0724,0829,12098,027.0,045.5,0.479,736.8,01.18,0.508
2014-08-23 00:49:00,1777E-3,5C000000,-0724,0828,12221,027.1,045.5,0.479,736.8,01.18,0.508
2014-08-23 00:50:00,1906E-3,5C000000,-0724,0828,11988,027.1,045.4,0.479,736.8,01.18,0.508
2014-08-23 00:51:00,1867E-3,5C000000,-0724,0828,12111,027.1,045.5,0.479,736.8,01.18,0.508
2014-08-23 00:52:00,1650E-3,5C000000,-0724,0828,12237,027.1,045.5,0.479,736.7,01.18,0.508
2014-08-23 00:53:00,1737E-3,5C000000,-0724,0829,12219,027.1,045.5,0.479,736.8,01.18,0.508
2014-08-23 00:54:00,1917E-3,5C000000,-0724,0829,12177,027.1,045.5,0.479,736.7,01.18,0.508
2014-08-23 00:55:00,1780E-3,5C000000,-0724,0829,12287,027.1,045.5,0.479,736.7,01.18,0.508
2014-08-23 00:56:00,1768E-3,5C000000,-0724,0828,12263,027.1,045.5,0.479,736.7,01.18,0.508
2014-08-23 00:57:00,1849E-3,5C000000,-0724,0829,12200,027.1,045.5,0.479,736.7,01.18,0.508
2014-08-23 00:58:00,1762E-3,5C000000,-0724,0828,12262,027.1,045.5,0.479,736.7,01.18,0.508
2014-08-23 00:59:00,1727E-3,5C000000,-0724,0827,12246,027.1,045.5,0.479,736.6,01.18,0.508
2014-08-23 01:00:00,1726E-3,5C000000,-0724,0829,12193,027.1,045.5,0.479,736.6,01.18,0.508
2014-08-23 01:01:00,1805E-3,5C000000,-0724,0828,12088,027.1,045.5,0.479,736.5,01.18,0.508
2014-08-23 01:02:00,1778E-3,5C000000,-0724,0828,12145,027.1,045.5,0.479,736.6,01.18,0.508
2014-08-23 01:03:00,1809E-3,5C000000,-0724,0829,12236,027.1,045.5,0.479,736.6,01.18,0.508
2014-08-23 01:04:00,1784E-3,5C000000,-0724,0829,12279,027.1,045.4,0.479,736.6,01.18,0.508
2014-08-23 01:05:00,1841E-3,5C000000,-0724,0829,12123,027.1,045.5,0.479,736.6,01.18,0.508
2014-08-23 01:06:00,1840E-3,5C000000,-0724,0828,12363,027.1,045.5,0.479,736.6,01.18,0.508
2014-08-23 01:07:00,1756E-3,5C000000,-0724,0828,12313,027.2,045.5,0.479,736.6,01.18,0.508
2014-08-23 01:08:00,1849E-3,5C000000,-0724,0828,12322,027.1,045.5,0.479,736.6,01.18,0.508
2014-08-23 01:09:00,1864E-3,5C000000,-0724,0829,12251,027.2,045.4,0.479,736.5,01.18,0.508
2014-08-23 01:10:00,1716E-3,5C000000,-0724,0829,12106,027.2,045.5,0.479,736.6,01.18,0.508
2014-08-23 01:11:00,1833E-3,5C000000,-0724,0829,12339,027.2,045.5,0.479,736.6,01.18,0.508
2014-08-23 01:12:00,1868E-3,5C000000,-0724,0828,11998,027.2,045.5,0.479,736.6,01.18,0.508
2014-08-23 01:13:00,1915E-3,5C000000,-0724,0828,12151,027.2,045.5,0.479,736.5,01.18,0.508
2014-08-23 01:14:00,1882E-3,5C000000,-0724,0829,12046,027.2,045.5,0.479,736.5,01.18,0.508
2014-08-23 01:15:00,1843E-3,5C000000,-0724,0827,12275,027.2,045.4,0.479,736.6,01.18,0.508
2014-08-23 01:16:00,1788E-3,5C000000,-0724,0828,12304,027.2,045.5,0.479,736.5,01.18,0.508
2014-08-23 01:17:00,1740E-3,5C000000,-0724,0829,12246,027.2,045.5,0.479,736.5,01.18,0.508
2014-08-23 01:18:00,1690E-3,5C000000,-0724,0829,12321,027.2,045.5,0.479,736.4,01.18,0.508
2014-08-23 01:19:00,1714E-3,5C000000,-0724,0829,12247,027.2,045.5,0.478,736.5,01.18,0.508
2014-08-23 01:20:00,1866E-3,5C000000,-0724,0828,12062,027.2,045.5,0.479,736.5,01.18,0.508
2014-08-23 01:21:00,1803E-3,5C000000,-0724,0829,12233,027.2,045.5,0.479,736.5,01.18,0.508
2014-08-23 01:22:00,1786E-3,5C000000,-0724,0829,12176,027.2,045.5,0.478,736.5,01.18,0.508
2014-08-23 01:23:00,1801E-3,5C000000,-0724,0828,12023,027.2,045.5,0.479,736.4,01.18,0.508
2014-08-23 01:24:00,1836E-3,5C000000,-0724,0829,12289,027.2,045.5,0.479,736.4,01.18,0.508
2014-08-23 01:25:00,1920E-3,5C000000,-0724,0829,12155,027.2,045.5,0.479,736.4,01.18,0.508
2014-08-23 01:26:00,1793E-3,5C000000,-0724,0829,12215,027.3,045.5,0.478,736.4,01.18,0.508
2014-08-23 01:27:00,1789E-3,5C000000,-0724,0829,12057,027.3,045.5,0.479,736.4,01.18,0.508
2014-08-23 01:28:00,1820E-3,5C000000,-0724,0828,12246,027.3,045.5,0.479,736.4,01.18,0.508
2014-08-23 01:29:00,1869E-3,5C000000,-0724,0828,12292,027.3,045.5,0.479,736.4,01.18,0.508
2014-08-23 01:30:00,1732E-3,5C000000,-0724,0829,12052,027.3,045.5,0.478,736.4,01.18,0.508
2014-08-23 01:31:00,1873E-3,5C000000,-0724,0828,12201,027.3,045.5,0.479,736.4,01.18,0.508
2014-08-23 01:32:00,1928E-3,5C000000,-0724,0829,12142,027.3,045.5,0.479,736.4,01.18,0.508
2014-08-23 01:33:00,1838E-3,5C000000,-0724,0829,12266,027.3,045.5,0.479,736.4,01.18,0.508
2014-08-23 01:34:00,1879E-3,5C000000,-0724,0829,12219,027.3,045.5,0.478,736.3,01.18,0.508
2014-08-23 01:35:00,1650E-3,5C000000,-0724,0828,12230,027.3,045.5,0.479,736.3,01.18,0.508
2014-08-23 01:36:00,1892E-3,5C000000,-0724,0830,12170,027.3,045.5,0.479,736.3,01.18,0.508
2014-08-23 01:37:00,1838E-3,5C000000,-0724,0828,12306,027.3,045.5,0.478,736.3,01.18,0.508
2014-08-23 01:38:00,1943E-3,5C000000,-0724,0828,12109,027.3,045.4,0.478,736.3,01.18,0.508
2014-08-23 01:39:00,1751E-3,5C000000,-0724,0829,12007,027.3,045.5,0.479,736.3,01.18,0.508
2014-08-23 01:40:00,1726E-3,5C000000,-0724,0828,12207,027.3,045.5,0.479,736.3,01.18,0.508
2014-08-23 01:41:00,1689E-3,5C000000,-0724,0829,12377,027.4,045.5,0.478,736.3,01.18,0.508
2014-08-23 01:42:00,1694E-3,5C000000,-0724,0828,12370,027.3,045.5,0.478,736.3,01.18,0.508
2014-08-23 01:43:00,1786E-3,5C000000,-0724,0829,12221,027.4,045.5,0.479,736.3,01.18,0.508
2014-08-23 01:44:00,1807E-3,5C000000,-0724,0828,12270,027.4,045.5,0.479,736.3,01.18,0.508
2014-08-23 01:45:00,1731E-3,5C000000,-0724,0828,12181,027.4,045.5,0.478,736.3,01.18,0.508
2014-08-23 01:46:00,1918E-3,5C000000,-0724,0830,12093,027.4,045.5,0.478,736.3,01.18,0.508
2014-08-23 01:47:00,1900E-3,5C000000,-0724,0829,12136,027.4,045.5,0.479,736.3,01.18,0.508
2014-08-23 01:48:00,1904E-3,5C000000,-0724,0828,12245,027.4,045.5,0.478,736.2,01.18,0.508
2014-08-23 01:49:00,1822E-3,5C000000,-0724,0829,12350,027.4,045.5,0.478,736.2,01.18,0.508
2014-08-23 01:50:00,1806E-3,5C000000,-0724,0829,12141,027.4,045.5,0.479,736.3,01.18,0.508
2014-08-23 01:51:00,1885E-3,5C000000,-0724,0829,12138,027.4,045.5,0.479,736.3,01.18,0.508
2014-08-23 01:52:00,1884E-3,5C000000,-0724,0829,12189,027.4,045.5,0.478,736.3,01.18,0.508
2014-08-23 01:53:00,1760E-3,5C000000,-0724,0829,12336,027.4,045.5,0.478,736.3,01.18,0.508
2014-08-23 01:54:00,1884E-3,5C000000,-0724,0829,12004,027.4,045.5,0.479,736.2,01.18,0.508
2014-08-23 01:55:00,1890E-3,5C000000,-0724,0828,12240,027.4,045.5,0.479,736.2,01.18,0.508
2014-08-23 01:56:00,1766E-3,5C000000,-0724,0829,12121,027.5,045.5,0.478,736.2,01.18,0.508
2014-08-23 01:57:00,1780E-3,5C000000,-0724,0828,12093,027.4,045.5,0.478,736.2,01.18,0.508
2014-08-23 01:58:00,1817E-3,5C000000,-0724,0829,12213,027.5,045.5,0.479,736.2,01.18,0.508
2014-08-23 01:59:00,1880E-3,5C000000,-0724,0829,12363,027.5,045.5,0.478,736.2,01.18,0.508
2014-08-23 02:00:00,1742E-3,5C000000,-0724,0830,12179,027.5,045.5,0.478,736.1,01.18,0.508
2014-08-23 02:01:00,1763E-3,5C000000,-0724,0829,12223,027.5,045.5,0.478,736.1,01.18,0.508
2014-08-23 02:02:00,1850E-3,5C000000,-0724,0829,12230,027.5,045.5,0.479,736.1,01.18,0.508
2014-08-23 02:03:00,1806E-3,5C000000,-0724,0829,12319,027.5,045.5,0.478,736.1,01.18,0.508
2014-08-23 02:04:00,1621E-3,5C000000,-0724,0829,12317,027.5,045.5,0.478,736.1,01.18,0.508
2014-08-23 02:05:00,1849E-3,5C000000,-0724,0828,12341,027.5,045.5,0.478,736.1,01.18,0.508
2014-08-23 02:06:00,1752E-3,5C000000,-0724,0828,12100,027.5,045.5,0.478,736.1,01.18,0.508
2014-08-23 02:07:00,1886E-3,5C000000,-0724,0830,12086,027.5,045.5,0.478,736.1,01.18,0.508
2014-08-23 02:08:00,1636E-3,5C000000,-0724,0829,12275,027.5,045.5,0.478,736.1,01.18,0.508
2014-08-23 02:09:00,1743E-3,5C000000,-0724,0829,12289,027.5,045.5,0.479,736.0,01.18,0.508
2014-08-23 02:10:00,1803E-3,5C000000,-0724,0829,12410,027.5,045.5,0.478,736.0,01.18,0.508
2014-08-23 02:11:00,1837E-3,5C000000,-0724,0828,12147,027.6,045.5,0.478,736.0,01.18,0.508
2014-08-23 02:12:00,1846E-3,5C000000,-0724,0829,12446,027.6,045.5,0.478,736.0,01.18,0.508
2014-08-23 02:13:00,1976E-3,5C000000,-0724,0827,12219,027.6,045.5,0.478,736.0,01.18,0.508
2014-08-23 02:14:00,1757E-3,5C000000,-0724,0829,11901,027.6,045.5,0.478,736.0,01.18,0.508
2014-08-23 02:15:00,1754E-3,5C000000,-0724,0829,12266,027.6,045.5,0.478,736.0,01.18,0.508
2014-08-23 02:16:00,1690E-3,5C000000,-0724,0830,12249,027.6,045.5,0.478,736.0,01.18,0.508
2014-08-23 02:17:00,1747E-3,5C000000,-0724,0829,12022,027.6,045.5,0.478,736.0,01.18,0.508
2014-08-23 02:18:00,1763E-3,5C000000,-0724,0828,12213,027.6,045.5,0.478,736.0,01.18,0.508
2014-08-23 02:19:00,1771E-3,5C000000,-0724,0829,12312,027.6,045.5,0.478,736.0,01.18,0.508
2014-08-23 02:20:00,1834E-3,5C000000,-0724,0829,12175,027.6,045.5,0.478,736.0,01.18,0.508
2014-08-23 02:21:00,1714E-3,5C000000,-0724,0828,12006,027.7,045.5,0.478,736.0,01.18,0.508
2014-08-23 02:22:00,1763E-3,5C000000,-0724,0828,12057,027.7,045.5,0.478,735.9,01.18,0.508
2014-08-23 02:23:00,1702E-3,5C000000,-0724,0829,12280,027.7,045.5,0.478,735.9,01.18,0.508
2014-08-23 02:24:00,1753E-3,5C000000,-0724,0829,12270,027.7,045.5,0.478,735.9,01.18,0.508
2014-08-23 02:25:00,1748E-3,5C000000,-0724,0829,12199,027.7,045.5,0.478,735.9,01.18,0.508
2014-08-23 02:26:00,1867E-3,5C000000,-0724,0829,12096,027.7,045.5,0.478,735.9,01.18,0.508
2014-08-23 02:27:00,1801E-3,5C000000,-0724,0828,12161,027.7,045.5,0.478,735.9,01.18,0.508
2014-08-23 02:28:00,1706E-3,5C000000,-0724,0829,12179,027.7,045.5,0.478,735.8,01.18,0.508
2014-08-23 02:29:00,1932E-3,5C000000,-0724,0828,12119,027.7,045.5,0.478,735.8,01.18,0.508
2014-08-23 02:30:00,1780E-3,5C000000,-0724,0829,12126,027.7,045.5,0.478,735.8,01.18,0.508
2014-08-23 02:31:00,1808E-3,5C000000,-0724,0828,12167,027.7,045.5,0.478,735.8,01.18,0.508
2014-08-23 02:32:00,1666E-3,5C000000,-0724,0829,12181,027.7,045.5,0.477,735.8,01.18,0.508
2014-08-23 02:33:00,1746E-3,5C000000,-0724,0829,12404,027.7,045.5,0.478,735.8,01.18,0.508
2014-08-23 02:34:00,1833E-3,5C000000,-0724,0829,12111,027.8,045.5,0.478,735.7,01.18,0.508
2014-08-23 02:35:00,1915E-3,5C000000,-0724,0828,12300,027.8,045.5,0.478,735.8,01.18,0.508
2014-08-23 02:36:00,1802E-3,5C000000,-0724,0830,12215,027.8,045.5,0.478,735.7,01.18,0.508
2014-08-23 02:37:00,1826E-3,5C000000,-0724,0829,12163,027.8,045.5,0.478,735.8,01.18,0.508
2014-08-23 02:38:00,1765E-3,5C000000,-0724,0828,12267,027.8,045.5,0.477,735.7,01.18,0.508
2014-08-23 02:39:00,1763E-3,5C000000,-0724,0829,12232,027.8,045.5,0.478,735.7,01.18,0.508
2014-08-23 02:40:00,1833E-3,5C000000,-0724,0829,12214,027.8,045.5,0.478,735.7,01.18,0.508
2014-08-23 02:41:00,1792E-3,5C000000,-0724,0829,12260,027.8,045.5,0.478,735.7,01.18,0.508
2014-08-23 02:42:00,1883E-3,5C000000,-0724,0829,12100,027.8,045.5,0.477,735.7,01.18,0.508
2014-08-23 02:43:00,1784E-3,5C000000,-0724,0828,12191,027.8,045.5,0.478,735.7,01.18,0.508
2014-08-23 02:44:00,1857E-3,5C000000,-0724,0828,12008,027.9,045.5,0.478,735.7,01.18,0.508
2014-08-23 02:45:00,1855E-3,5C000000,-0724,0829,12179,027.9,045.5,0.477,735.7,01.18,0.508
2014-08-23 02:46:00,1839E-3,5C000000,-0724,0829,12293,027.8,045.5,0.478,735.7,01.18,0.508
2014-08-23 02:47:00,1793E-3,5C000000,-0724,0828,12265,027.9,045.5,0.478,735.7,01.18,0.508
2014-08-23 02:48:00,1801E-3,5C000000,-0724,0828,12148,027.9,045.5,0.477,735.7,01.18,0.508
2014-08-23 02:49:00,1900E-3,5C000000,-0724,0830,12374,027.9,045.5,0.478,735.7,01.18,0.508
2014-08-23 02:50:00,1859E-3,5C000000,-0724,0828,12211,027.9,045.5,0.478,735.7,01.18,0.508
2014-08-23 02:51:00,1826E-3,5C000000,-0724,0828,12168,027.9,045.5,0.477,735.7,01.18,0.508
2014-08-23 02:52:00,1802E-3,5C000000,-0724,0828,12333,027.9,045.5,0.478,735.7,01.18,0.508
2014-08-23 02:53:00,1853E-3,5C000000,-0724,0829,12183,027.9,045.5,0.478,735.6,01.18,0.508
2014-08-23 02:54:00,1815E-3,5C000000,-0724,0829,12288,027.9,045.5,0.477,735.6,01.18,0.508
2014-08-23 02:55:00,1874E-3,5C000000,-0724,0829,12104,027.9,045.5,0.478,735.6,01.18,0.508
2014-08-23 02:56:00,1731E-3,5C000000,-0724,0829,12301,027.9,045.5,0.477,735.7,01.18,0.508
2014-08-23 02:57:00,1905E-3,5C000000,-0724,0829,12245,027.9,045.5,0.477,735.6,01.18,0.508
2014-08-23 02:58:00,1816E-3,5C000000,-0724,0830,12140,027.9,045.5,0.478,735.7,01.18,0.508
2014-08-23 02:59:00,1870E-3,5C000000,-0724,0828,12344,028.0,045.5,0.478,735.6,01.18,0.508
2014-08-23 03:00:00,1876E-3,5C000000,-0724,0828,12302,028.0,045.5,0.477,735.6,01.18,0.508
2014-08-23 03:01:00,1891E-3,5C000000,-0724,0828,12123,028.0,045.5,0.478,735.6,01.18,0.508
2014-08-23 03:02:00,1842E-3,5C000000,-0724,0829,12323,028.0,045.5,0.478,735.6,01.18,0.508
2014-08-23 03:03:00,1938E-3,5C000000,-0724,0829,12242,028.0,045.5,0.477,735.6,01.18,0.508
2014-08-23 03:04:00,1912E-3,5C000000,-0724,0828,12201,028.0,045.5,0.478,735.6,01.18,0.508
2014-08-23 03:05:00,1918E-3,5C000000,-0724,0828,12239,028.0,045.5,0.478,735.6,01.18,0.508
2014-08-23 03:06:00,1846E-3,5C000000,-0724,0830,12253,028.0,045.5,0.477,735.6,01.18,0.508
2014-08-23 03:07:00,1838E-3,5C000000,-0724,0828,12093,028.0,045.5,0.478,735.6,01.18,0.508
2014-08-23 03:08:00,1866E-3,5C000000,-0724,0828,12045,028.0,045.5,0.477,735.6,01.18,0.508
2014-08-23 03:09:00,1884E-3,5C000000,-0724,0828,12121,028.0,045.5,0.477,735.6,01.18,0.508
2014-08-23 03:10:00,1853E-3,5C000000,-0724,0828,12438,028.0,045.5,0.478,735.6,01.18,0.508
2014-08-23 03:11:00,1739E-3,5C000000,-0724,0828,12250,028.0,045.5,0.477,735.5,01.18,0.508
2014-08-23 03:12:00,1856E-3,5C000000,-0724,0829,12130,028.1,045.5,0.477,735.5,01.18,0.508
2014-08-23 03:13:00,1857E-3,5C000000,-0724,0829,12264,028.1,045.5,0.478,735.5,01.18,0.508
2014-08-23 03:14:00,1778E-3,5C000000,-0724,0828,12100,028.1,045.5,0.477,735.5,01.18,0.508
2014-08-23 03:15:00,1894E-3,5C000000,-0724,0829,12029,028.1,045.5,0.477,735.5,01.18,0.508
2014-08-23 03:16:00,1771E-3,5C000000,-0724,0828,12229,028.1,045.5,0.477,735.5,01.18,0.508
2014-08-23 03:17:00,1967E-3,5C000000,-0724,0829,12029,028.1,045.5,0.477,735.4,01.18,0.508
2014-08-23 03:18:00,1815E-3,5C000000,-0724,0828,12171,028.1,045.5,0.477,735.4,01.18,0.508
2014-08-23 03:19:00,1735E-3,5C000000,-0724,0828,12224,028.1,045.5,0.477,735.4,01.18,0.508
2014-08-23 03:20:00,1937E-3,5C000000,-0724,0828,12103,028.1,045.5,0.477,735.4,01.18,0.508
2014-08-23 03:21:00,1867E-3,5C000000,-0724,0829,12286,028.1,045.5,0.477,735.4,01.18,0.508
2014-08-23 03:22:00,1786E-3,5C000000,-0724,0830,12335,028.1,045.5,0.477,735.4,01.18,0.508
2014-08-23 03:23:00,1812E-3,5C000000,-0724,0829,12298,028.1,045.5,0.477,735.3,01.18,0.508
2014-08-23 03:24:00,1745E-3,5C000000,-0724,0829,12316,028.1,045.5,0.477,735.3,01.18,0.508
2014-08-23 03:25:00,1734E-3,5C000000,-0724,0829,12207,028.1,045.5,0.477,735.3,01.18,0.508
2014-08-23 03:26:00,1849E-3,5C000000,-0724,0829,12107,028.1,045.5,0.477,735.3,01.18,0.508
2014-08-23 03:27:00,1771E-3,5C000000,-0724,0828,12221,028.1,045.5,0.477,735.3,01.18,0.508
2014-08-23 03:28:00,1856E-3,5C000000,-0724,0829,12182,028.1,045.5,0.477,735.3,01.18,0.508
2014-08-23 03:29:00,1791E-3,5C000000,-0724,0829,12269,028.1,045.5,0.477,735.3,01.18,0.508
2014-08-23 03:30:00,1980E-3,5C000000,-0724,0828,12319,028.2,045.5,0.477,735.2,01.18,0.508
2014-08-23 03:31:00,1858E-3,5C000000,-0724,0829,12205,028.1,045.5,0.477,735.3,01.18,0.508
2014-08-23 03:32:00,1878E-3,5C000000,-0724,0829,12169,028.2,045.5,0.477,735.3,01.18,0.508
2014-08-23 03:33:00,1788E-3,5C000000,-0724,0829,12061,028.2,045.5,0.477,735.3,01.18,0.508
2014-08-23 03:34:00,1829E-3,5C000000,-0724,0827,12183,028.2,045.5,0.477,735.3,01.18,0.508
2014-08-23 03:35:00,1819E-3,5C000000,-0724,0829,12267,028.2,045.5,0.477,735.3,01.18,0.508
2014-08-23 03:36:00,1848E-3,5C000000,-0724,0829,12207,028.2,045.5,0.477,735.3,01.18,0.508
2014-08-23 03:37:00,1911E-3,5C000000,-0724,0829,12101,028.2,045.5,0.477,735.3,01.18,0.508
2014-08-23 03:38:00,1905E-3,5C000000,-0724,0828,12159,028.2,045.5,0.477,735.2,01.18,0.508
2014-08-23 03:39:00,1799E-3,5C000000,-0724,0829,12125,028.2,045.5,0.477,735.2,01.18,0.508
2014-08-23 03:40:00,1827E-3,5C000000,-0724,0829,12173,028.2,045.5,0.477,735.2,01.18,0.508
2014-08-23 03:41:00,1850E-3,5C000000,-0724,0828,12303,028.2,045.5,0.477,735.2,01.18,0.508
2014-08-23 03:42:00,1832E-3,5C000000,-0724,0829,12293,028.2,045.5,0.477,735.2,01.18,0.508
2014-08-23 03:43:00,1803E-3,5C000000,-0724,0829,12137,028.2,045.5,0.477,735.2,01.18,0.508
2014-08-23 03:44:00,1845E-3,5C000000,-0724,0828,12066,028.3,045.5,0.477,735.2,01.18,0.508
2014-08-23 03:45:00,1772E-3,5C000000,-0724,0828,12199,028.2,045.5,0.477,735.2,01.18,0.508
2014-08-23 03:46:00,1862E-3,5C000000,-0724,0829,12333,028.3,045.5,0.477,735.1,01.18,0.508
2014-08-23 03:47:00,1802E-3,5C000000,-0724,0828,12147,028.2,045.5,0.477,735.1,01.18,0.508
2014-08-23 03:48:00,1765E-3,5C000000,-0724,0829,12197,028.3,045.5,0.477,735.1,01.18,0.508
2014-08-23 03:49:00,1806E-3,5C000000,-0724,0829,12321,028.3,045.5,0.477,735.1,01.18,0.508
2014-08-23 03:50:00,1762E-3,5C000000,-0724,0829,12231,028.3,045.5,0.477,735.1,01.18,0.508
2014-08-23 03:51:00,1884E-3,5C000000,-0724,0828,12184,028.3,045.5,0.477,735.1,01.18,0.508
2014-08-23 03:52:00,1940E-3,5C000000,-0724,0828,12261,028.3,045.5,0.477,735.1,01.18,0.508
2014-08-23 03:53:00,1943E-3,5C000000,-0724,0829,12220,028.3,045.5,0.476,735.1,01.18,0.508
2014-08-23 03:54:00,1845E-3,5C000000,-0724,0828,12095,028.3,045.5,0.477,735.1,01.18,0.508
2014-08-23 03:55:00,1777E-3,5C000000,-0724,0828,12278,028.3,045.5,0.477,735.0,01.18,0.508
2014-08-23 03:56:00,1843E-3,5C000000,-0724,0828,12200,028.3,045.5,0.477,735.0,01.18,0.508
2014-08-23 03:57:00,1814E-3,5C000000,-0724,0829,12308,028.3,045.5,0.477,735.0,01.18,0.508
2014-08-23 03:58:00,1776E-3,5C000000,-0724,0829,12081,028.3,045.5,0.476,735.0,01.18,0.508
2014-08-23 03:59:00,1840E-3,5C000000,-0724,0828,12131,028.3,045.5,0.477,735.0,01.18,0.508
2014-08-23 04:00:00,1711E-3,5C000000,-0724,0828,11995,028.3,045.5,0.477,735.0,01.18,0.508
2014-08-23 04:01:00,1761E-3,5C000000,-0724,0828,12312,028.3,045.5,0.476,735.0,01.18,0.508
2014-08-23 04:02:00,1831E-3,5C000000,-0724,0829,12010,028.3,045.5,0.477,734.9,01.18,0.508
2014-08-23 04:03:00,1731E-3,5C000000,-0724,0828,12234,028.3,045.5,0.476,734.9,01.18,0.508
2014-08-23 04:04:00,1852E-3,5C000000,-0724,0828,12199,028.3,045.5,0.477,734.9,01.18,0.508
2014-08-23 04:05:00,1754E-3,5C000000,-0724,0829,12164,028.3,045.5,0.477,734.9,01.18,0.508
2014-08-23 04:06:00,1837E-3,5C000000,-0724,0829,12211,028.3,045.5,0.476,734.9,01.18,0.508
2014-08-23 04:07:00,1820E-3,5C000000,-0724,0828,12365,028.4,045.5,0.477,734.9,01.18,0.508
2014-08-23 04:08:00,1782E-3,5C000000,-0724,0829,12154,028.4,045.5,0.476,734.9,01.18,0.508
2014-08-23 04:09:00,1776E-3,5C000000,-0724,0829,12243,028.4,045.5,0.476,734.9,01.18,0.508
2014-08-23 04:10:00,1885E-3,5C000000,-0724,0829,12336,028.4,045.5,0.477,734.9,01.18,0.508
2014-08-23 04:11:00,1896E-3,5C000000,-0724,0829,12277,028.4,045.5,0.476,734.9,01.18,0.508
2014-08-23 04:12:00,1817E-3,5C000000,-0724,0829,12342,028.4,045.5,0.477,734.9,01.18,0.508
2014-08-23 04:13:00,1594E-3,5C000000,-0724,0829,12198,028.4,045.5,0.477,734.9,01.18,0.508
2014-08-23 04:14:00,1807E-3,5C000000,-0724,0829,12146,028.4,045.5,0.476,734.9,01.18,0.508
2014-08-23 04:15:00,1785E-3,5C000000,-0724,0829,12101,028.4,045.5,0.477,734.9,01.18,0.508
2014-08-23 04:16:00,1808E-3,5C000000,-0724,0828,12298,028.4,045.5,0.476,734.9,01.18,0.508
2014-08-23 04:17:00,1864E-3,5C000000,-0724,0828,12348,028.4,045.5,0.476,734.9,01.18,0.508
2014-08-23 04:18:00,1751E-3,5C000000,-0724,0829,12281,028.4,045.5,0.477,734.9,01.18,0.508
2014-08-23 04:19:00,1989E-3,5C000000,-0724,0828,12199,028.4,045.5,0.476,734.9,01.18,0.508
2014-08-23 04:20:00,1777E-3,5C000000,-0724,0829,12225,028.4,045.5,0.477,734.9,01.18,0.508